Location: Newark
(48.0000°N, 67.0000°E)
Time: 05:25:32
(UTC+00:00)

DUCHIFAT 1 - Pass Details

Date: 03 April 2020
Orbit: 586 x 604 km, 97.9° (Epoch: 27 May)

Event Time Altitude Azimuth Distance (km) Brightness Sun altitude
Rises 22:26:55 0° 356° (N) 2,843 ? -24.4°
Reaches altitude 10° 22:30:17 10° 326° (NNW) 1,931 ? -23.9°
Enters shadow 22:30:59 11° 317° (NW) 1,835 ? -23.8°
